TimeEDT,TemperatureF,Dew PointF,Humidity,Sea Level PressureIn,VisibilityMPH,Wind Direction,Wind SpeedMPH,Gust SpeedMPH,PrecipitationIn,Events,Conditions,WindDirDegrees,DateUTC
12:53 AM,64.0,52.0,65,29.86,10.0,SSW,4.6,-,N/A,,Mostly Cloudy,200,2013-04-10 04:53:00
1:53 AM,61.0,52.0,72,29.86,10.0,Calm,Calm,-,N/A,,Mostly Cloudy,0,2013-04-10 05:53:00
2:53 AM,57.9,51.1,78,29.86,10.0,Calm,Calm,-,N/A,,Clear,0,2013-04-10 06:53:00
3:53 AM,57.9,51.1,78,29.86,10.0,Calm,Calm,-,N/A,,Scattered Clouds,0,2013-04-10 07:53:00
4:53 AM,53.1,50.0,89,29.87,10.0,Calm,Calm,-,N/A,,Clear,0,2013-04-10 08:53:00
5:53 AM,54.0,50.0,86,29.91,10.0,North,6.9,-,N/A,,Scattered Clouds,360,2013-04-10 09:53:00
6:53 AM,60.1,51.1,72,29.91,10.0,Calm,Calm,-,N/A,,Overcast,0,2013-04-10 10:53:00
7:53 AM,61.0,54.0,78,29.92,9.0,Calm,Calm,-,N/A,,Partly Cloudy,0,2013-04-10 11:53:00
8:53 AM,66.9,52.0,59,29.93,9.0,Calm,Calm,-,N/A,,Overcast,0,2013-04-10 12:53:00
9:53 AM,71.1,52.0,51,29.91,10.0,NE,3.5,-,N/A,,Clear,50,2013-04-10 13:53:00
10:53 AM,75.9,54.0,46,29.90,10.0,SSE,3.5,-,N/A,,Clear,150,2013-04-10 14:53:00
11:53 AM,79.0,55.9,45,29.88,10.0,WSW,9.2,-,N/A,,Mostly Cloudy,240,2013-04-10 15:53:00
12:53 PM,82.0,55.9,41,29.86,10.0,WSW,8.1,21.9,N/A,,Scattered Clouds,250,2013-04-10 16:53:00
1:53 PM,81.0,55.9,42,29.85,10.0,WSW,9.2,23.0,N/A,,Mostly Cloudy,240,2013-04-10 17:53:00
2:53 PM,84.0,57.0,40,29.82,10.0,Variable,5.8,16.1,N/A,,Mostly Cloudy,0,2013-04-10 18:53:00
3:53 PM,84.0,55.9,38,29.79,10.0,WSW,4.6,-,N/A,,Partly Cloudy,240,2013-04-10 19:53:00
4:53 PM,82.0,55.9,41,29.78,10.0,WSW,4.6,-,N/A,Thunderstorm,Thunderstorm,250,2013-04-10 20:53:00
5:39 PM,75.2,60.8,61,29.80,10.0,Variable,4.6,-,0.00,Rain,Light Rain,0,2013-04-10 21:39:00
5:50 PM,78.8,57.2,47,29.82,10.0,West,9.2,20.7,0.00,Rain-Thunderstorm,Light Rain,260,2013-04-10 21:50:00
5:53 PM,79.0,57.0,47,29.81,10.0,WSW,11.5,20.7,0.00,Rain-Thunderstorm,Light Rain,240,2013-04-10 21:53:00
6:23 PM,75.2,55.4,50,29.78,10.0,WNW,8.1,-,0.00,,Scattered Clouds,300,2013-04-10 22:23:00
6:53 PM,73.9,54.0,50,29.77,10.0,West,3.5,-,0.00,,Clear,280,2013-04-10 22:53:00
7:53 PM,66.9,55.0,66,29.78,10.0,Calm,Calm,-,N/A,,Partly Cloudy,0,2013-04-10 23:53:00
8:42 PM,66.2,55.4,68,29.93,3.0,West,13.8,34.5,0.06,Rain-Thunderstorm,Heavy Thunderstorms and Rain,280,2013-04-11 00:42:00
8:50 PM,64.4,57.2,77,29.92,2.0,West,6.9,19.6,0.11,Rain-Thunderstorm,Heavy Thunderstorms and Rain,280,2013-04-11 00:50:00
8:53 PM,64.0,57.9,80,29.91,2.5,WNW,8.1,19.6,0.13,Rain-Thunderstorm,Heavy Thunderstorms and Rain,300,2013-04-11 00:53:00
9:00 PM,62.6,57.2,82,29.91,4.0,Calm,Calm,-,0.01,Rain-Thunderstorm,Thunderstorms and Rain,0,2013-04-11 01:00:00
9:32 PM,60.8,57.2,88,29.89,8.0,Calm,Calm,-,0.03,Rain,Light Rain,0,2013-04-11 01:32:00
9:53 PM,61.0,57.9,90,29.89,8.0,Calm,Calm,-,0.04,Rain,Light Rain,0,2013-04-11 01:53:00
10:53 PM,60.1,59.0,96,29.89,8.0,Calm,Calm,-,0.03,Rain,Light Rain,0,2013-04-11 02:53:00
11:51 PM,60.8,59.0,94,29.88,4.0,Calm,Calm,-,0.17,Rain-Thunderstorm,Thunderstorms and Rain,0,2013-04-11 03:51:00
11:53 PM,60.1,59.0,96,29.88,4.0,Calm,Calm,-,0.17,Rain-Thunderstorm,Thunderstorms and Rain,0,2013-04-11 03:53:00